User: anonymous   Login
Location: Unspecified
(0.0000°N, 0.0000°E)
Time: 03:45:26
(UTC+00:00)
Language:

CUTE 1.7 + AOD 2 - Orbit

View from above orbital plane
View from above orbital plane
View from above satellite
View from above satellite

Ground track
Ground track

The orbit data is extracted from the following two-line orbital elements,

1 32785U 08021C   15146.51928895  .00000835  00000-0  99340-4 0  9995
2 32785 097.6510 190.8789 0014670 134.1085 334.4299 14.86825413383018
Epoch (UTC): 26 May 2015 12:27:46
Eccentricity: 0.0014670
inclination: 97.6510°
perigee height: 597 km
apogee height: 618 km
right ascension of ascending node: 190.8789°
argument of perigee: 134.1085°
revolutions per day: 14.86825413
mean anomaly at epoch: 334.4299°
orbit number at epoch: 38301

The dashed part of the orbit path shows where the satellite is in the earth's shadow,  

DLR